OK1FPA-15 Weather Reports


time (UTC)temp
C
wind
direction
speed
KPH
gust
KPH
rain 1hr
cm
rain 24hr
cm
rain mn
cm
humidity
%
barometer
mb
20260507080744 12 0.0 0.0 0.00 0.00 0.00 87 1011.0
20260507075744 12 0.0 0.0 0.00 0.00 0.00 89 1010.8
20260507074744 12 0.0 0.0 0.00 0.00 0.00 89 1010.8
20260507073744 12 0.0 0.0 0.00 0.00 0.00 90 1010.6
20260507072745 11 0.0 0.0 0.00 0.00 0.00 90 1010.6
20260507071744 11 0.0 0.0 0.00 0.00 0.00 91 1010.6
20260507070744 11 0.0 0.0 0.00 0.00 0.00 91 1010.5
20260507065744 11 0.0 0.0 0.00 0.00 0.00 91 1010.5
20260507064744 11 0.0 0.0 0.00 0.00 0.00 91 1010.4
20260507063744 11 0.0 0.0 0.00 0.00 0.00 92 1010.3
20260507062744 11 0.0 0.0 0.00 0.00 0.00 92 1010.2
20260507061744 11 0.0 0.0 0.00 0.00 0.00 91 1010.1
20260507060744 11 0.0 0.0 0.00 0.00 0.00 94 1009.9
20260507055744 11 0.0 0.0 0.00 0.00 0.00 95 1009.9
20260507054744 11 0.0 0.0 0.00 0.00 0.00 94 1009.8
20260507053744 11 0.0 0.0 0.00 0.00 0.00 92 1009.8
20260507052744 11 0.0 0.0 0.00 0.00 0.00 91 1009.6
20260507051744 11 0.0 0.0 0.00 0.00 0.00 90 1009.5
20260507050744 11 0.0 0.0 0.00 0.00 0.00 92 1009.4
20260507045744 11 0.0 0.0 0.00 0.00 0.00 91 1009.3
20260507044744 11 0.0 0.0 0.00 0.00 0.00 91 1009.3
20260507043744 11 0.0 0.0 0.00 0.00 0.00 92 1009.2
20260507042744 11 0.0 0.0 0.00 0.00 0.00 92 1009.2
20260507041744 11 0.0 0.0 0.00 0.00 0.00 93 1009.1
20260507040744 11 0.0 0.0 0.00 0.00 0.00 93 1009.1
20260507034744 11 0.0 0.0 0.00 0.00 0.00 93 1008.9
20260507033744 11 0.0 0.0 0.00 0.00 0.00 94 1008.9
20260507032744 11 0.0 0.0 0.00 0.00 0.00 95 1009.0
20260507031744 11 0.0 0.0 0.00 0.00 0.00 95 1008.9
20260507030744 11 0.0 0.0 0.00 0.00 0.00 96 1008.9
20260507025744 11 0.0 0.0 0.00 0.00 0.00 95 1008.8
20260507024744 11 0.0 0.0 0.00 0.00 0.00 96 1008.8
20260507023744 11 0.0 0.0 0.00 0.00 0.00 95 1008.6
20260507022744 11 0.0 0.0 0.00 0.00 0.00 94 1008.6
20260507021744 11 0.0 0.0 0.00 0.00 0.00 94 1008.5
20260507020744 11 0.0 0.0 0.00 0.00 0.00 93 1008.3
20260507015744 11 0.0 0.0 0.00 0.00 0.00 92 1008.3
20260507014744 11 0.0 0.0 0.00 0.00 0.00 91 1008.2
20260507013744 11 0.0 0.0 0.00 0.00 0.00 91 1008.2
20260507012744 12 0.0 0.0 0.00 0.00 0.00 93 1008.2
20260507011744 12 0.0 0.0 0.00 0.00 0.00 95 1008.2
20260507010744 12 0.0 0.0 0.00 0.00 0.00 95 1008.3
20260507005744 12 0.0 0.0 0.00 0.00 0.00 95 1008.1
20260507004744 12 0.0 0.0 0.00 0.00 0.00 94 1008.0
20260507003744 12 0.0 0.0 0.00 0.00 0.00 95 1007.9
20260507002744 12 0.0 0.0 0.00 0.00 0.00 96 1007.9
20260507001744 12 0.0 0.0 0.00 0.00 0.00 96 1007.9
20260507000744 12 0.0 0.0 0.00 0.00 0.00 95 1007.8
20260506235744 13 0.0 0.0 0.00 0.00 0.00 95 1007.9
20260506234747 12 0.0 0.0 0.00 0.00 0.00 95 1007.8
20260506233743 13 0.0 0.0 0.00 0.00 0.00 94 1007.6
20260506232743 13 0.0 0.0 0.00 0.00 0.00 96 1007.3
20260506231743 13 0.0 0.0 0.00 0.00 0.00 96 1007.2
20260506225743 13 0.0 0.0 0.00 0.00 0.00 96 1007.3
20260506224743 13 0.0 0.0 0.00 0.00 0.00 94 1007.4
20260506223743 13 0.0 0.0 0.00 0.00 0.00 92 1007.3
20260506222743 13 0.0 0.0 0.00 0.00 0.00 92 1007.3
20260506221743 13 0.0 0.0 0.00 0.00 0.00 92 1007.1
20260506220743 13 0.0 0.0 0.00 0.00 0.00 92 1006.8
20260506215743 13 0.0 0.0 0.00 0.00 0.00 92 1006.6
20260506214743 13 0.0 0.0 0.00 0.00 0.00 92 1006.8
20260506213743 13 0.0 0.0 0.00 0.00 0.00 92 1006.8
20260506212743 13 0.0 0.0 0.00 0.00 0.00 92 1006.7
20260506211743 13 0.0 0.0 0.00 0.00 0.00 91 1006.7
20260506210743 13 0.0 0.0 0.00 0.00 0.00 91 1006.5
20260506205743 13 0.0 0.0 0.00 0.00 0.00 91 1006.4
20260506204742 13 0.0 0.0 0.00 0.00 0.00 90 1006.4
20260506203743 13 0.0 0.0 0.00 0.00 0.00 91 1006.4
20260506202743 13 0.0 0.0 0.00 0.00 0.00 91 1006.5
20260506201743 13 0.0 0.0 0.00 0.00 0.00 90 1006.4
20260506200743 13 0.0 0.0 0.00 0.00 0.00 90 1006.2
20260506195743 14 0.0 0.0 0.00 0.00 0.00 88 1006.1
20260506194743 14 0.0 0.0 0.00 0.00 0.00 87 1006.1
20260506193743 15 0.0 0.0 0.00 0.00 0.00 85 1005.8
20260506192742 15 0.0 0.0 0.00 0.00 0.00 81 1005.6
20260506191742 16 0.0 0.0 0.00 0.00 0.00 76 1005.9
20260506190744 16 0.0 0.0 0.00 0.00 0.00 72 1005.9
20260506185743 17 0.0 0.0 0.00 0.00 0.00 66 1005.8
20260506184743 17 0.0 0.0 0.00 0.00 0.00 56 1005.4
20260506183742 17 0.0 0.0 0.00 0.00 0.00 58 1005.2
20260506182743 18 0.0 0.0 0.00 0.00 0.00 54 1005.0
20260506181743 18 0.0 0.0 0.00 0.00 0.00 53 1004.9
20260506180743 18 0.0 0.0 0.00 0.00 0.00 52 1004.8
20260506175743 18 0.0 0.0 0.00 0.00 0.00 51 1004.9
20260506174743 18 0.0 0.0 0.00 0.00 0.00 50 1004.9
20260506173743 18 0.0 0.0 0.00 0.00 0.00 52 1004.9
20260506172743 18 0.0 0.0 0.00 0.00 0.00 53 1004.7
20260506171743 19 0.0 0.0 0.00 0.00 0.00 51 1004.6
20260506170743 20 0.0 0.0 0.00 0.00 0.00 49 1004.5
20260506165743 21 0.0 0.0 0.00 0.00 0.00 44 1004.4
20260506164743 22 0.0 0.0 0.00 0.00 0.00 42 1004.5
20260506163747 23 0.0 0.0 0.00 0.00 0.00 37 1004.4
20260506162743 23 0.0 0.0 0.00 0.00 0.00 38 1004.4
20260506161743 23 0.0 0.0 0.00 0.00 0.00 37 1004.4
20260506160743 22 0.0 0.0 0.00 0.00 0.00 40 1004.6
20260506155743 22 0.0 0.0 0.00 0.00 0.00 41 1004.7
20260506154743 22 0.0 0.0 0.00 0.00 0.00 39 1004.8
20260506153743 22 0.0 0.0 0.00 0.00 0.00 39 1005.0
20260506152743 22 0.0 0.0 0.00 0.00 0.00 38 1005.0
20260506151743 22 0.0 0.0 0.00 0.00 0.00 40 1005.1
20260506150743 22 0.0 0.0 0.00 0.00 0.00 39 1005.1
20260506145743 22 0.0 0.0 0.00 0.00 0.00 41 1005.2
20260506144743 22 0.0 0.0 0.00 0.00 0.00 41 1005.2
20260506143743 22 0.0 0.0 0.00 0.00 0.00 40 1005.2
20260506142743 22 0.0 0.0 0.00 0.00 0.00 40 1005.3
20260506141743 22 0.0 0.0 0.00 0.00 0.00 40 1005.4
20260506140743 22 0.0 0.0 0.00 0.00 0.00 40 1005.4
20260506135743 22 0.0 0.0 0.00 0.00 0.00 40 1005.4
20260506134743 22 0.0 0.0 0.00 0.00 0.00 39 1005.5
20260506133743 22 0.0 0.0 0.00 0.00 0.00 39 1005.6
20260506132743 22 0.0 0.0 0.00 0.00 0.00 39 1005.7
20260506131743 22 0.0 0.0 0.00 0.00 0.00 43 1005.7
20260506130743 22 0.0 0.0 0.00 0.00 0.00 43 1006.0
20260506125743 21 0.0 0.0 0.00 0.00 0.00 45 1006.0
20260506124743 21 0.0 0.0 0.00 0.00 0.00 45 1006.1
20260506123743 21 0.0 0.0 0.00 0.00 0.00 44 1006.3
20260506122743 22 0.0 0.0 0.00 0.00 0.00 43 1006.2
20260506121743 22 0.0 0.0 0.00 0.00 0.00 44 1006.3
20260506120743 22 0.0 0.0 0.00 0.00 0.00 43 1006.3
20260506115743 22 0.0 0.0 0.00 0.00 0.00 44 1006.3
20260506114747 22 0.0 0.0 0.00 0.00 0.00 45 1006.3
20260506113742 21 0.0 0.0 0.00 0.00 0.00 46 1006.3
20260506112742 22 0.0 0.0 0.00 0.00 0.00 48 1006.4
20260506111742 22 0.0 0.0 0.00 0.00 0.00 47 1006.4
20260506110741 21 0.0 0.0 0.00 0.00 0.00 46 1006.3
20260506105741 21 0.0 0.0 0.00 0.00 0.00 49 1006.5
20260506104741 20 0.0 0.0 0.00 0.00 0.00 49 1006.5
20260506103741 20 0.0 0.0 0.00 0.00 0.00 50 1006.6
20260506102741 21 0.0 0.0 0.00 0.00 0.00 49 1006.6
20260506101742 21 0.0 0.0 0.00 0.00 0.00 50 1006.7
20260506100741 21 0.0 0.0 0.00 0.00 0.00 50 1006.5
20260506095741 21 0.0 0.0 0.00 0.00 0.00 53 1006.5
20260506094741 20 0.0 0.0 0.00 0.00 0.00 51 1006.4
20260506093741 20 0.0 0.0 0.00 0.00 0.00 54 1006.4
20260506092742 20 0.0 0.0 0.00 0.00 0.00 56 1006.4
20260506091741 19 0.0 0.0 0.00 0.00 0.00 58 1006.6
20260506090741 18 0.0 0.0 0.00 0.00 0.00 63 1006.4
20260506085741 18 0.0 0.0 0.00 0.00 0.00 63 1006.6
20260506084741 18 0.0 0.0 0.00 0.00 0.00 64 1006.5
20260506083741 18 0.0 0.0 0.00 0.00 0.00 65 1006.5
20260506082742 18 0.0 0.0 0.00 0.00 0.00 64 1006.3
20260506081742 18 0.0 0.0 0.00 0.00 0.00 66 1006.3